Content
SEND FEEDBACK

Daily
Averages
Monthly
Summary
Ireland

CLAREMORRIS, IRELAND


Home > Europe > Ireland
Elevation: 226 feet     Latitude: 53 43N     Longitude: 008 59W

WEATHER
 
SELECT A DAY
Number of Records: 188,853;   Date Range: 5/30/97 - 7/28/14
 
SHARE

PRINT THIS DATA

[ ← Previous Day ]
WEATHER ALMANAC - MAY 7, 2013
[ Next Day → ]
[ °C ]   °F
Weather ElementAverageHighLow
Temperature54.5 °F59 °F (1:00 pm)44.6 °F (7:00 am)
Dewpoint46.5 °F48.2 °F (9:00 am)44 °F (7:00 pm)
Humidity75.3 %100 % (7:00 am)54 % (7:00 pm)
Barometer29.86 in29.96 in (7:00 am)29.71 in (7:00 pm)
Wind Speed13.4 mph18.4 mph (3:00 pm)
Wind Gust33.4 mph (6:00 pm)
Weather ElementAverage
Visibility5.8 mi
Wind DirectionSE (134.4 °)

Weather ElementTotal
Precipitation---
Heating Degree Days13.2 (Base 65)
Growing Degree Days1.8 (Base 50)
Averaged from 27 records on May 7, 2013
WEATHER CONDITIONS BREAKOUT
WIND DIRECTION BREAKOUT
WEATHER BY HOUR - MAY 7, 2013
[ °C ]   °F
Local TimeTemperatureDewpointHumidityBarometerVisibilityWind DirectionWind SpeedGust SpeedPrecipitationEventsConditions
7:00 AM45.0 °F45.0 °F98 %29.96 in0.0 miSE (140°)8.9 mphFogHeavy Fog
7:00 AM44.6 °F44.6 °F100 %29.92 in0.2 miSE (140°)8.1 mphFogFog
7:30 AM46.4 °F46.4 °F100 %29.92 in0.2 miSE (130°)8.1 mphFogFog
8:00 AM46.4 °F46.4 °F100 %29.92 in0.4 miSE (130°)10.4 mphFogFog
8:30 AM46.4 °F46.4 °F100 %29.92 in0.6 miSE (130°)10.4 mphFogFog
9:00 AM48.2 °F48.2 °F100 %29.92 in2.2 miSE (130°)11.5 mphOvercast
9:30 AM50.0 °F48.2 °F94 %29.92 in3.7 miESE (120°)11.5 mphMostly Cloudy
10:00 AM51.8 °F48.2 °F88 %29.92 in5.6 miSE (130°)11.5 mphMostly Cloudy
10:30 AM55.4 °F48.2 °F77 %29.92 in6.2 miSE (130°)13.8 mphMostly Cloudy
11:00 AM55.4 °F48.2 °F77 %29.92 in6.2 miSE (140°)13.8 mphMostly Cloudy
11:30 AM55.4 °F46.4 °F72 %29.89 in6.2 miSE (140°)13.8 mphMostly Cloudy
12:00 PM57.2 °F48.2 °F72 %29.89 in6.2 miSSE (150°)11.5 mphMostly Cloudy
12:30 PM57.2 °F46.4 °F67 %29.89 in6.2 miSE (140°)13.8 mphMostly Cloudy
1:00 PM59.0 °F46.4 °F63 %29.89 in6.2 miSE (140°)12.7 mphMostly Cloudy
1:00 PM58.0 °F47.0 °F56 %29.88 in22.0 miSE (140°)13.4 mphPartly Cloudy
1:30 PM59.0 °F46.4 °F63 %29.86 in6.2 miSE (130°)13.8 mphRainLight Rain
2:00 PM59.0 °F46.4 °F63 %29.86 in6.2 miSE (130°)13.8 mph25.3 mphRainLight Rain
2:30 PM59.0 °F46.4 °F63 %29.83 in6.2 miSE (130°)16.1 mphRainLight Rain
3:00 PM59.0 °F46.4 °F63 %29.83 in6.2 miSE (130°)18.4 mphOvercast
3:30 PM59.0 °F46.4 °F63 %29.80 in6.2 miSE (130°)17.3 mphOvercast
4:00 PM59.0 °F46.4 °F63 %29.80 in6.2 miSE (130°)16.1 mphOvercast
4:30 PM59.0 °F46.4 °F63 %29.77 in6.2 miSE (130°)15.0 mph26.5 mphRainLight Rain
5:00 PM57.2 °F48.2 °F72 %29.77 in6.2 miSE (130°)12.7 mphRainLight Rain
5:30 PM57.2 °F44.6 °F63 %29.74 in6.2 miSE (140°)16.1 mphRainLight Rain
6:00 PM55.4 °F46.4 °F72 %29.74 in6.2 miSE (140°)18.4 mph33.4 mphRainLight Rain
7:00 PM56.0 °F44.0 °F54 %29.74 in16.0 miSE (140°)15.7 mphRainLight Rain
7:00 PM55.4 °F44.6 °F67 %29.71 in6.2 miSE (140°)15.0 mphOvercast
Hourly data recorded from EIKN, located miles away from Claremorris, Ireland







STORIES FROM OUR PARTNERS